Home > Weather > Itabuna > Past weeks

Flag for Brazil Past Weather in Itabuna, Bahia, Brazil — Yesterday and Last 2 Weeks

Now
73 °F

Scattered showers. Scattered clouds.


Feels Like: 75 °F
Forecast: 61 / 80 °F
Wind: 12 mph from South

Location: Salvador Aeroporto

Current Time: Jul 29, 2016 at 7:15:49 AM

Latest Report: Jul 29, 2016 at 6:00 AM


Visibility: N/A

Pressure: 30.09 "Hg

Humidity: 74%

Dew Point: 64 °F

Location of ItabunaLocation

Past Weather in Itabuna — Graph

°F

Itabuna Temperature Yesterday

Maximum temperature yesterday: 82 °F (at 12:00 PM)
Minimum temperature yesterday: 73 °F (at 6:00 AM)
Average temperature yesterday: 78 °F

High & Low Weather Summary for the Past Weeks

 TemperatureHumidityPressure
High88 °F (Jul 27, 10:00 AM)100% (Jul 25, 6:00 AM)30.15 "Hg (Jul 25, 6:00 AM)
Low36 °F (Jul 25, 6:00 AM)20% (Jul 23, 5:00 PM)29.92 "Hg (Jul 17, 2:00 PM)
Average78 °F71%30.05 "Hg
* Reported Jul 14 6:00 AM — Jul 29 6:00 AM, Itabuna, Weather by CustomWeather, © 2016

Note: Actual official high and low records may vary slightly from our data, if they occured in-between our weather recording intervals... More about our weather records

Advertising

Itabuna Weather History for the Previous 24 Hours

Scroll right to see more
 ConditionsComfort  
Time TempWeatherWind HumidityBarometerVisibility
6:00 AM
Fri, Jul 29
73 °FScattered showers. Scattered clouds.12 mph74%30.09 "HgN/A
5:00 AM75 °FPassing clouds.14 mph69%30.07 "HgN/A
4:00 AM77 °FPassing clouds.10 mph61%30.07 "HgN/A
3:00 AM77 °FPassing clouds.9 mph57%30.09 "HgN/A
2:00 AM77 °FPassing clouds.13 mph65%30.09 "HgN/A
1:00 AM77 °FPassing clouds.9 mph61%30.09 "HgN/A
12:00 AM77 °FPassing clouds.12 mph61%30.09 "HgN/A
11:00 PM
Thu, Jul 28
77 °FPassing clouds.14 mph65%30.09 "HgN/A
10:00 PM77 °FPassing clouds.13 mph69%30.09 "HgN/A
9:00 PM77 °FPassing clouds.13 mph74%30.09 "HgN/A
8:00 PM79 °FPassing clouds.14 mph70%30.07 "HgN/A
7:00 PM79 °FPassing clouds.10 mph65%30.07 "HgN/A
6:00 PM79 °FPassing clouds.8 mph65%30.04 "HgN/A
5:00 PM79 °FScattered clouds.10 mph70%30.04 "HgN/A
4:00 PM81 °FScattered clouds.12 mph62%30.04 "HgN/A
3:00 PM81 °FScattered clouds.13 mph62%30.04 "HgN/A
2:00 PM82 °FScattered clouds.13 mph62%30.04 "HgN/A
1:00 PM82 °FScattered clouds.9 mph58%30.07 "HgN/A
12:00 PM82 °FScattered clouds.12 mph58%30.07 "HgN/A
11:00 AM81 °FScattered clouds.10 mph62%30.07 "HgN/A
10:00 AM81 °FScattered clouds.10 mph62%30.09 "HgN/A
9:00 AM81 °FScattered clouds.10 mph62%30.09 "HgN/A
8:00 AM79 °FScattered clouds.7 mph65%30.07 "HgN/A
7:00 AM73 °FPassing clouds.2 mph78%30.04 "HgN/A
Weather by CustomWeather, © 2016

See weather overviewHow to use our weather pages